OBJECT Q, 57180

Orbit data source: Space-Track

You're viewing an Uncataloged Satellite

Recently launched and/or uncataloged satellites may have evolving metadata. Metadata may include but not limited to: Owner, Maufacturer, Bus, Motor, and Mission.

OBJECT Q, 57180 is a satellite in SSO that was launched on Tue, 27 Jun 2023 UTC via a SOYUZ-2-1B launch vehicle from the Vostochny Cosmodrome (VOSTO). Unknown objects in Earth's orbit typically refer to objects detected orbiting the Earth but have not yet been identified or cataloged. These objects could be anything from previously untracked satellites, spent rocket stages, debris from satellite collisions, or even natural meteoroids temporarily captured by Earth's gravity.

Loading next visibility...
Identifier
57180, 2023-091Q
Orbit
SSO
Country
Flag of TBDTBD
Related business
Manufacturer
Sputniks
Mission
Operational Amateur Science
Bus & Motor
CUBESAT 3U, Unknown motor
Mass
5 kg wet, 5 kg dry
Launch date (UTC)
2023-06-27 (3 years ago)
Launch vehicle
SOYUZ-2-1B
Launch site
Vostochny Cosmodrome (VOSTO)
Object type
Unknown
Shape & HBR
Box, 0.1 m
Radar Cross Section
0.035 m², Medium (>0.1 m² and < 1m²)

Expand to show TLE details & history
Last TLE update: 5 days ago

TLE from 5 days ago
0 OBJECT Q
1 57180U 23091Q   26155.16389975  .00011994  00000-0  44641-3 0  9999
2 57180  97.5085 218.5166 0012863 141.1958 219.0208 15.27565922162303
Epoch: 2026-06-04T03:56Z
TLE epoch observation values (Epoch: 2026-06-04T03:56:00.938Z)
Latitude
0.00007°
Longitude
-93.09942°
Altitude
493.052 km
Speed
7.614 km/s
True Right ascension
14h 34m 03s
True Declination
0° 00' 00"
Sunlit
Object was in full shadow at epoch
Visualization orbit readout
Latitude
Unknown
Longitude
Unknown
Altitude
Unknown
Speed
Unknown
Apparent Right ascension
Unknown
Apparent Declination
Unknown
Sunlit
N/A
Visualization observer readout
Local Sidereal Time
18:57:45
Azimuth
Unknown
Elevation
Unknown
Doppler factor
Unknown
Orbital elements
Apogee altitude
488.873 km
Perigee altitude
471.23 km
Semi-major axis
6,858.188 km
Eccentricity
0.00129
Inclination
97.5085°
RAAN
218.5166°
Arg. of periapsis
141.1958°
True anomaly
218.92811°
Mean anomaly
219.0208°
Eccentric anomaly
218.97444°
Mean motion
3.82146 °/min
Orbital period
94.2 mins
BSTAR
0.00044641
Loading maneuver chart data...
Computing Atmospheric mass density...
Loading historical data...
Loading historical data...
Loading historical data...
Loading historical data...
Loading historical data...
Loading historical data...
Loading historical data...

Documentation

Showing up to 5 results
|